Date,TemperatureHighF,TemperatureAvgF,TemperatureLowF,DewpointHighF,DewpointAvgF,DewpointLowF,HumidityHigh,HumidityAvg,HumidityLow,PressureMaxIn,PressureMinIn,WindSpeedMaxMPH,WindSpeedAvgMPH,GustSpeedMaxMPH,PrecipitationSumIn
2012-12-1,40.6,38.2,34.2,37.0,32.1,28.0,98,79,67,29.96,29.84,7,4,19,0.01
2012-12-2,39.7,34.4,28.2,34.7,30.2,25.7,93,84,77,29.97,29.77,7,3,12,0.00
2012-12-3,42.3,38.1,32.9,38.5,35.7,29.5,97,91,80,29.77,29.43,12,6,23,0.05
2012-12-4,40.3,38.3,35.4,38.1,35.6,30.7,95,90,79,29.70,29.44,8,4,15,0.05
2012-12-5,38.7,36.0,29.7,32.5,30.3,24.6,84,80,72,29.97,29.70,7,5,16,0.00
2012-12-6,41.4,36.7,28.2,36.9,32.5,23.9,97,85,69,29.94,29.25,14,5,26,0.40
2012-12-7,43.3,40.5,37.2,39.2,36.1,33.6,96,84,80,30.08,29.32,7,4,16,0.04
2012-12-8,47.8,42.3,35.4,45.3,39.1,32.5,93,88,80,30.15,29.88,15,8,28,0.01
2012-12-9,46.9,43.9,41.2,43.3,37.4,34.7,90,78,67,30.14,29.82,14,8,26,0.00
2012-12-10,42.1,39.7,34.9,36.1,33.9,29.3,82,80,76,30.46,30.14,6,4,15,0.00
2012-12-11,37.2,33.2,29.7,33.1,30.0,27.1,93,88,81,30.47,30.23,6,3,10,0.00
2012-12-12,37.0,33.7,26.2,34.5,31.4,25.0,96,91,85,30.23,29.83,7,3,13,0.00
2012-12-13,28.6,27.5,26.2,27.7,26.6,24.8,97,96,95,29.83,29.78,2,0,4,0.00
2012-12-15,47.1,45.4,43.2,42.4,41.3,39.9,92,86,83,29.19,28.77,12,8,22,0.03
2012-12-16,49.3,41.5,34.0,42.3,38.6,31.6,97,89,77,29.36,29.19,7,2,12,0.00
2012-12-17,43.7,40.0,34.0,43.3,39.0,32.0,99,96,91,29.70,29.33,4,1,8,0.01
2012-12-18,45.3,42.0,31.5,43.3,40.4,30.2,99,94,90,30.12,29.74,5,1,9,0.00
2012-12-19,45.0,42.5,36.1,40.3,38.9,34.9,98,87,79,30.11,29.88,10,4,18,0.00
2012-12-20,44.4,42.9,41.7,40.8,39.9,38.7,92,89,84,29.88,29.60,16,11,30,0.40
2012-12-21,42.1,41.3,40.6,40.1,39.5,38.8,95,93,91,29.88,29.65,10,6,19,0.14
2012-12-22,42.3,41.6,41.2,40.6,40.0,39.4,94,94,93,29.85,29.77,6,4,11,0.00
2012-12-23,52.6,47.6,45.1,49.2,43.9,41.5,98,87,78,29.42,28.92,21,12,39,0.13
2012-12-24,47.0,43.4,33.6,43.2,40.5,31.6,98,90,82,29.43,29.16,10,4,21,0.08
2012-12-25,43.9,41.2,36.0,40.5,38.1,33.6,95,89,82,29.30,29.11,13,5,23,0.00
2012-12-26,43.5,41.5,38.8,39.9,38.3,37.0,93,88,83,29.45,29.30,10,5,20,0.30
2012-12-27,41.2,38.9,35.4,37.8,34.5,31.5,94,84,74,29.93,29.33,12,6,25,0.24
2012-12-28,56.1,48.3,38.1,49.5,43.9,34.3,92,85,78,29.90,29.23,16,9,31,0.05
2012-12-29,56.3,46.6,39.4,50.0,41.1,33.4,91,81,75,29.23,29.15,16,9,31,0.02
2012-12-30,52.0,42.1,36.9,47.8,37.3,33.6,91,83,77,29.33,29.21,18,12,34,0.00
2012-12-31,52.5,47.3,38.7,47.8,42.1,34.7,90,82,75,29.28,28.96,19,12,34,0.04